Regional Weather Roundup
Issued by NWS

Home | Current Version | Previous Version | Text Only | Print | Product List | Glossary On
Versions: 1 2 3 4 5 6 7 8 9 10 11 12 13 14 15 16 17 18 19 20 21 22 23 24 25 26 27 28 29 30 31 32 33 34 35 36 37 38 39 40 41 42 43 44 45 46 47 48 49 50
000
ASUS43 KLMK 050410
RWRKY
KENTUCKY REGIONAL WEATHER ROUNDUP
NATIONAL WEATHER SERVICE LOUISVILLE KY
1100 PM EST WED MAR 04 2015

NOTE "FAIR" INDICATES FEW OR NO CLOUDS BELOW 12,000 FEET
WITH NO SIGNIFICANT WEATHER AND/OR OBSTRUCTIONS TO VISIBILITY.

KYZ001>023-026-027-061>063-070>075-050500-
WESTERN AND SOUTH CENTRAL KENTUCKY

CITY           SKY/WX    TMP DP  RH WIND       PRES   REMARKS
PADUCAH        SNOW      19  15  84 N16       30.31R VSB 1/2 WCI   4
HENDERSON      CLOUDY    19  16  86 N9        30.31S WCI   9
OWENSBORO      SNOW      19  18  93 N3        30.28R
HOPKINSVILLE   LGT SNOW  21  19  93 N14       30.22R FOG     WCI   8
BOWLING GREEN  LGT SNOW  26  22  84 N12       30.21R FOG     WCI  16
GLASGOW        MIX PCPN  30  30 100 N9        30.16R WCI  21
$$

KYZ024-025-028>034-038-045-046-053-050500-
NORTH CENTRAL KENTUCKY

CITY           SKY/WX    TMP DP  RH WIND       PRES   REMARKS
LOUISVILLE/SDF HVY SNOW  24  21  88 N15G24    30.24R VSB 1/4 WCI  11
LOUISVILLE/LOU SNOW      23  20  88 N16       30.25R VSB 1/2 WCI  10
FORT KNOX      SNOW      23  21  93 NW13      30.19R VSB 1/4 WCI  11
$$

KYZ035>037-039>044-047>052-055>060-089>105-050500-
NORTHEAST KENTUCKY

CITY           SKY/WX    TMP DP  RH WIND       PRES   REMARKS
LEXINGTON      FOG       27  26  96 N13       30.14R VSB 1/2 WCI  16
COVINGTON      LGT SNOW  24  21  88 N12       30.19R VSB 3/4 WCI  13
FRANKFORT      SNOW      26  24  92 N13       30.15R VSB 1/2 WCI  15
$$

KYZ054-064>069-076>088-106>120-050500-
SOUTHEAST KENTUCKY

CITY           SKY/WX    TMP DP  RH WIND       PRES   REMARKS
JACKSON        LGT RAIN  33  31  92 N6        30.07R FOG     WCI  28
LONDON         LGT RAIN  35  31  85 N9        30.07R WCI  28
SOMERSET       MIX PCPN  32  32 100 N8G17     30.12R WCI  25
MIDDLESBORO    DRIZZLE   39  38  94 N6        30.02S WCI  35
MONTICELLO     LGT SNOW  34  33  96 NE12      30.12R FOG     WCI  25
$$



USA.gov is the U.S. government's official web portal to all federal, state and local government web resources and services.